TimeCST,TemperatureF,Dew PointF,Humidity,Sea Level PressureIn,VisibilityMPH,Wind Direction,Wind SpeedMPH,Gust SpeedMPH,PrecipitationIn,Events,Conditions,WindDirDegrees,DateUTC
12:15 AM,30.2,23.0,75,30.46,10.0,SSW,4.6,-,N/A,,Clear,200,2012-11-13 06:15:00
12:35 AM,30.2,23.0,75,30.46,10.0,SSW,3.5,-,N/A,,Clear,200,2012-11-13 06:35:00
1:15 AM,30.2,23.0,75,30.46,10.0,SSW,3.5,-,N/A,,Clear,200,2012-11-13 07:15:00
1:35 AM,30.2,23.0,75,30.46,10.0,South,3.5,-,N/A,,Clear,170,2012-11-13 07:35:00
1:55 AM,28.4,21.2,74,30.46,10.0,South,3.5,-,N/A,,Clear,170,2012-11-13 07:55:00
2:35 AM,28.4,23.0,80,30.46,10.0,South,3.5,-,N/A,,Clear,170,2012-11-13 08:35:00
2:55 AM,28.4,21.2,74,30.46,10.0,SSE,3.5,-,N/A,,Clear,160,2012-11-13 08:55:00
3:16 AM,28.4,21.2,74,30.46,10.0,South,4.6,-,N/A,,Clear,170,2012-11-13 09:16:00
3:35 AM,28.4,23.0,80,30.46,10.0,South,4.6,-,N/A,,Clear,170,2012-11-13 09:35:00
3:55 AM,26.6,21.2,80,30.45,10.0,Calm,Calm,-,N/A,,Clear,0,2012-11-13 09:55:00
4:16 AM,28.4,23.0,80,30.45,10.0,Calm,Calm,-,N/A,,Clear,0,2012-11-13 10:16:00
4:35 AM,26.6,23.0,86,30.45,10.0,South,3.5,-,N/A,,Clear,170,2012-11-13 10:35:00
4:55 AM,26.6,21.2,80,30.45,10.0,Calm,Calm,-,N/A,,Clear,0,2012-11-13 10:55:00
6:35 AM,26.6,21.2,80,30.46,10.0,Calm,Calm,-,N/A,,Clear,0,2012-11-13 12:35:00
6:55 AM,26.6,21.2,80,30.47,10.0,SSE,3.5,-,N/A,,Clear,150,2012-11-13 12:55:00
7:15 AM,26.6,21.2,80,30.47,10.0,SE,3.5,-,N/A,,Clear,140,2012-11-13 13:15:00
7:36 AM,28.4,23.0,80,30.47,10.0,SSE,3.5,-,N/A,,Clear,150,2012-11-13 13:36:00
7:55 AM,30.2,26.6,86,30.48,10.0,Calm,Calm,-,N/A,,Clear,0,2012-11-13 13:55:00
8:15 AM,33.8,26.6,75,30.48,10.0,Calm,Calm,-,N/A,,Clear,0,2012-11-13 14:15:00
8:35 AM,35.6,26.6,70,30.49,10.0,SSE,3.5,-,N/A,,Clear,160,2012-11-13 14:35:00
8:55 AM,39.2,28.4,65,30.49,10.0,South,3.5,-,N/A,,Clear,170,2012-11-13 14:55:00
9:15 AM,41.0,28.4,61,30.49,10.0,South,3.5,-,N/A,,Clear,180,2012-11-13 15:15:00
9:35 AM,42.8,28.4,57,30.49,10.0,South,4.6,-,N/A,,Clear,180,2012-11-13 15:35:00
9:55 AM,44.6,28.4,53,30.50,10.0,SW,3.5,-,N/A,,Clear,220,2012-11-13 15:55:00
10:15 AM,46.4,26.6,46,30.50,10.0,SW,3.5,-,N/A,,Clear,230,2012-11-13 16:15:00
10:35 AM,48.2,28.4,46,30.49,10.0,SSW,3.5,-,N/A,,Clear,210,2012-11-13 16:35:00
10:55 AM,48.2,26.6,43,30.48,10.0,SSW,3.5,-,N/A,,Clear,210,2012-11-13 16:55:00
11:15 AM,50.0,24.8,37,30.47,10.0,Calm,Calm,-,N/A,,Clear,0,2012-11-13 17:15:00
11:55 AM,51.8,24.8,35,30.45,10.0,SSW,4.6,-,N/A,,Clear,210,2012-11-13 17:55:00
1:15 PM,53.6,21.2,28,30.40,10.0,SSW,3.5,-,N/A,,Clear,210,2012-11-13 19:15:00
1:35 PM,53.6,21.2,28,30.40,10.0,SSE,3.5,-,N/A,,Clear,160,2012-11-13 19:35:00
1:55 PM,53.6,21.2,28,30.38,10.0,Calm,Calm,-,N/A,,Clear,0,2012-11-13 19:55:00
2:15 PM,53.6,21.2,28,30.38,10.0,SW,4.6,-,N/A,,Clear,230,2012-11-13 20:15:00
2:55 PM,53.6,21.2,28,30.37,10.0,SSW,4.6,-,N/A,,Clear,200,2012-11-13 20:55:00
3:15 PM,53.6,21.2,28,30.36,10.0,Calm,Calm,-,N/A,,Clear,0,2012-11-13 21:15:00
3:35 PM,53.6,21.2,28,30.35,10.0,Calm,Calm,-,N/A,,Clear,0,2012-11-13 21:35:00
3:55 PM,53.6,21.2,28,30.35,10.0,SSE,3.5,-,N/A,,Clear,160,2012-11-13 21:55:00
4:15 PM,53.6,19.4,26,30.35,10.0,Calm,Calm,-,N/A,,Clear,0,2012-11-13 22:15:00
4:55 PM,51.8,21.2,30,30.34,10.0,SSE,3.5,-,N/A,,Clear,160,2012-11-13 22:55:00
5:15 PM,48.2,21.2,34,30.33,10.0,Calm,Calm,-,N/A,,Clear,0,2012-11-13 23:15:00
5:35 PM,46.4,19.4,34,30.33,10.0,Calm,Calm,-,N/A,,Clear,0,2012-11-13 23:35:00
5:56 PM,44.6,19.4,37,30.34,10.0,Calm,Calm,-,N/A,,Clear,0,2012-11-13 23:56:00
6:15 PM,42.8,19.4,39,30.35,10.0,Calm,Calm,-,N/A,,Clear,0,2012-11-14 00:15:00
6:35 PM,42.8,28.4,57,30.36,10.0,Calm,Calm,-,N/A,,Clear,0,2012-11-14 00:35:00
7:55 PM,41.0,24.8,53,30.39,10.0,SE,3.5,-,N/A,,Clear,140,2012-11-14 01:55:00
8:15 PM,39.2,26.6,61,30.40,10.0,Calm,Calm,-,N/A,,Clear,0,2012-11-14 02:15:00
8:35 PM,39.2,26.6,61,30.40,10.0,Calm,Calm,-,N/A,,Clear,0,2012-11-14 02:35:00
8:56 PM,42.8,24.8,49,30.40,10.0,SE,3.5,-,N/A,,Clear,140,2012-11-14 02:56:00
9:15 PM,42.8,26.6,53,30.40,10.0,Calm,Calm,-,N/A,,Clear,0,2012-11-14 03:15:00
9:35 PM,42.8,24.8,49,30.39,10.0,Calm,Calm,-,N/A,,Clear,0,2012-11-14 03:35:00
9:55 PM,39.2,28.4,65,30.40,10.0,Calm,Calm,-,N/A,,Clear,0,2012-11-14 03:55:00
10:15 PM,41.0,26.6,57,30.40,10.0,Calm,Calm,-,N/A,,Clear,0,2012-11-14 04:15:00
10:36 PM,42.8,26.6,53,30.39,10.0,ESE,4.6,-,N/A,,Clear,120,2012-11-14 04:36:00
10:55 PM,39.2,26.6,61,30.38,10.0,ESE,4.6,-,N/A,,Clear,120,2012-11-14 04:55:00
11:15 PM,39.2,26.6,61,30.38,10.0,SE,5.8,-,N/A,,Clear,130,2012-11-14 05:15:00
11:55 PM,39.2,28.4,65,30.39,10.0,Calm,Calm,-,N/A,,Clear,0,2012-11-14 05:55:00